The 430 - 970 metre wide asteroid 2001 YM2 will make a close pass (33.5 lunar distances, 0.0860 AU), travelling at 9.26 km/second, to the Earth-Moon system on the 12th November, 2012 @ 19:15 UT ±00:01. See moreThe Lunar Distance (LD), the distance between Earth and the Moon, equals 384,401 km, (or 0....
Elizabeth Cady Stanton (November 12, 1815 - October 26, 1902) was an American social activist, abolitionist, and leading figure of the early women's rights movement. Her Declaration of Sentiments, presented at the first women's rights convention held in 1848 in Seneca Falls, New York, is often c...
Yutaka Taniyama (November 12, 1927, Kisai near Tokyo - November 17, 1958, Tokyo) was a Japanese mathematician known for the Taniyama-Shimura conjecture. Read more
Sinyan Shen (born 1949) is an American physicist and classical composer. His dual career in music and physics culminated in the development of cultural acoustics, a discipline addressing scientifically the cultural molding of our ears and brain to music. Shen's life work centers on the essence o...
The Düzce earthquake of 1999 was an earthquake that occurred on 12 November 1999 at 18.57 local time (16.57 UTC) with a moment magnitude of 7.2, causing damage and 894 fatalities in Duzce, Turkey. Read more
Orbital elements:
2012 VE37 Earth MOID = 0.1519 AU
Epoch 2012 Sept. 30.0 TT = JDT 2456200.5 MPC
M 223.76989 (2000.0) P Q
n 0.92576490 Peri. 149.86096 -0.93225140 +0.28157541
a 1.0426429 Node 48.32989 -0.36168253 -0.74200125
e 0.5411701 Incl. 17.70789 +0.00964796 -0.60839908
P 1.06 H 20....
Orbital elements:
2012 VB37 Earth MOID = 0.0131 AU
Epoch 2012 Sept. 30.0 TT = JDT 2456200.5 MPC
M 344.34968 (2000.0) P Q
n 0.56182110 Peri. 149.58290 +0.82816486 -0.55986465
a 1.4545791 Node 244.48649 +0.50817464 +0.76987687
e 0.3151596 Incl. 1.67337 +0.23643497 +0.30633509
P 1.75 H 25....
Orbital elements:
2012 VD37 Earth MOID = 0.1028 AU
Epoch 2012 Sept. 30.0 TT = JDT 2456200.5 MPC
M 311.24699 (2000.0) P Q
n 0.67682545 Peri. 211.58778 +0.25671117 -0.93140131
a 1.2847489 Node 225.04522 +0.94522442 +0.29764759
e 0.1655505 Incl. 21.38625 +0.20161888 -0.20951734
P 1.46 H 25...
Orbital elements:
2012 TA219 Earth MOID = 0.4504 AU
Epoch 2012 Oct. 20.0 TT = JDT 2456220.5 MPC
M 331.67293 (2000.0) P Q
n 0.22877192 Peri. 91.39618 -0.53852881 -0.80687814
a 2.6476927 Node 34.93921 +0.49963326 -0.53778191
e 0.5623221 Incl. 25.08034 +0.67849342 -0.24441416
P 4.31 H 18.0...
Astronomer wins PM's prize for discovering dark matter An Australian astronomer, Professor Ken Freeman, has won the 2012 Australian Prime Minister's Prize for Science - more than 40 years after revolutionising his field with his research on dark matter. Freeman helped bring the concept of dark m...
Sun Releases Slow Moving CME On Nov. 9, 2012, at 13:24 UT, the sun emitted an Earth-directed coronal mass ejection (CME). A CME is a solar phenomenon that can send billions of tons of solar particles into space and can reach Earth one to three days later. CMEs can affect electronic systems in satellite...
Qi Jiguang (November 12, 1528 - January 5, 1588) was a Chinese military general and national hero during the Ming Dynasty. He was best remembered for his courage and leadership in the fight against Japanese pirates along the east coast of China, as well as his reinforcement work on the Great Wall of Ch...
Audouin Charles Dollfus (November 12, 1924 - October 1, 2010) was a French astronomer and aeronaut, specialist in studies of the solar system and discoverer of Janus, a moon of Saturn. Read more